FW6474 Weather Reports


time (UTC)temp
F
wind
direction
speed
knots
gust
knots
rain 1hr
in
rain 24hr
in
rain mn
in
humidity
%
barometer
mb
20260503193720 64 283 5.2 15.6 0.00 0.00 0.00 39 1011.1
20260503193220 63 261 7.0 16.5 0.00 0.00 0.00 39 1011.1
20260503192719 63 214 8.7 20.9 0.00 0.00 0.00 39 1011.3
20260503192220 63 240 8.7 20.9 0.00 0.00 0.00 38 1011.3
20260503191720 64 298 7.0 20.0 0.00 0.00 0.00 39 1011.2
20260503191452 64 209 7.0 19.1 0.00 0.00 0.00 38 1011.4
20260503190716 64 220 7.0 19.1 0.00 0.00 0.00 39 1011.4
20260503190215 65 236 7.0 20.9 0.00 0.00 0.00 38 1011.5
20260503185716 65 115 6.1 20.9 0.00 0.00 0.00 39 1011.6
20260503185215 65 220 5.2 13.9 0.00 0.00 0.00 40 1011.6
20260503184716 64 265 6.1 15.6 0.00 0.00 0.00 39 1011.7
20260503184215 64 228 6.1 15.6 0.00 0.00 0.00 41 1011.8
20260503183716 62 245 7.0 15.6 0.00 0.00 0.00 40 1011.8
20260503183449 62 318 7.0 18.2 0.00 0.00 0.00 40 1012.0
20260503182716 62 224 7.0 18.2 0.00 0.00 0.00 39 1012.1
20260503182213 62 166 7.0 16.5 0.00 0.00 0.00 40 1012.1
20260503181713 62 248 7.0 17.4 0.00 0.00 0.00 41 1012.2
20260503181214 63 240 6.1 17.4 0.00 0.00 0.00 39 1012.2
20260503180715 63 247 7.0 17.4 0.00 0.00 0.00 39 1012.3
20260503180444 62 267 7.8 20.9 0.00 0.00 0.00 40 1012.4
20260503175713 62 210 7.8 20.9 0.00 0.00 0.00 39 1012.4
20260503175213 62 269 7.8 17.4 0.00 0.00 0.00 41 1012.4
20260503174715 61 261 7.8 19.1 0.00 0.00 0.00 40 1012.6
20260503174213 62 240 7.8 19.1 0.00 0.00 0.00 40 1012.6
20260503173713 62 293 6.1 16.5 0.00 0.00 0.00 40 1012.6
20260503173213 62 249 5.2 13.9 0.00 0.00 0.00 41 1012.6
20260503172946 61 300 6.1 14.8 0.00 0.00 0.00 41 1012.7
20260503172216 61 198 8.7 15.6 0.00 0.00 0.00 41 1012.9
20260503171711 60 253 9.6 23.5 0.00 0.00 0.00 40 1013.0
20260503171435 61 255 7.8 23.5 0.00 0.00 0.00 40 1013.0
20260503170658 61 217 6.1 13.9 0.00 0.00 0.00 40 1013.1
20260503170423 60 287 7.8 14.8 0.00 0.00 0.00 41 1013.2
20260503150539 59 264 5.2 13.9 0.00 0.00 0.00 43 1014.0
20260503130843 49 258 5.2 13.9 0.00 0.00 0.00 53 1014.9
20260503130338 48 264 4.3 11.3 0.00 0.00 0.00 53 1014.9
20260503130104 48 253 3.5 9.6 0.00 0.00 0.00 54 1014.9
20260503110620 38 224 0.9 4.3 0.00 0.00 0.00 67 1015.1
20260503110113 38 232 0.9 2.6 0.00 0.00 0.00 67 1015.3
20260503090356 38 231 0.9 3.5 0.00 0.00 0.00 64 1015.9
20260503081256 39 247 0.9 2.6 0.00 0.00 0.00 64 1016.2
20260503080750 39 239 0.9 3.5 0.00 0.00 0.00 64 1016.3
20260503080520 39 212 0.9 3.5 0.00 0.00 0.00 64 1016.2
20260503072749 40 257 1.7 5.2 0.00 0.00 0.00 64 1016.2
20260503072248 40 240 1.7 5.2 0.00 0.00 0.00 64 1016.2
20260503071749 40 263 0.9 5.2 0.00 0.00 0.00 64 1016.1
20260503071250 40 288 0.9 4.3 0.00 0.00 0.00 65 1016.2
20260503070748 40 236 0.9 4.3 0.00 0.00 0.00 64 1016.1
20260503070250 40 278 1.7 4.3 0.00 0.00 0.00 64 1016.2
20260503054640 40 215 0.0 1.7 0.00 0.00 0.00 63 1016.7
20260503054406 41 231 0.0 1.7 0.00 0.00 0.00 63 1016.7
20260503053629 41 229 0.0 2.6 0.00 0.00 0.00 62 1016.8
20260503053122 41 240 0.9 2.6 0.00 0.00 0.00 62 1016.8
20260503052616 41 249 0.9 3.5 0.00 0.00 0.00 62 1016.8
20260503052110 41 213 0.9 4.3 0.00 0.00 0.00 62 1016.9
20260503051604 42 259 1.7 4.3 0.00 0.00 0.00 61 1016.9
20260503051059 42 238 1.7 4.3 0.00 0.00 0.00 61 1017.0
20260503050552 42 233 1.7 6.1 0.00 0.00 0.00 61 1016.9
20260503050046 42 288 1.7 6.1 0.00 0.00 0.00 61 1016.9
20260503045540 41 231 0.0 2.6 0.00 0.00 0.00 62 1017.0
20260503045308 41 224 0.0 2.6 0.00 0.00 0.00 62 1017.0
20260503044536 41 227 0.0 1.7 0.00 0.00 0.00 62 1017.1
20260503044035 41 225 0.0 1.7 0.00 0.00 0.00 62 1017.1
20260503043535 41 233 0.0 1.7 0.00 0.00 0.00 61 1017.0
20260503043035 41 213 0.9 3.5 0.00 0.00 0.00 61 1017.1
20260503042535 42 226 0.9 3.5 0.00 0.00 0.00 61 1017.1
20260503042306 42 234 0.0 2.6 0.00 0.00 0.00 61 1017.1
20260503041535 42 235 0.0 3.5 0.00 0.00 0.00 61 1017.2
20260503041034 42 226 0.0 3.5 0.00 0.00 0.00 61 1017.2
20260503040533 42 226 0.0 0.9 0.00 0.00 0.00 61 1017.1
20260503040034 42 217 0.0 0.9 0.00 0.00 0.00 60 1017.2
20260503035526 42 188 0.0 0.9 0.00 0.00 0.00 60 1017.3
20260503035020 42 222 0.0 1.7 0.00 0.00 0.00 60 1017.3
20260503034515 42 229 0.0 1.7 0.00 0.00 0.00 60 1017.3
20260503034009 42 214 0.0 1.7 0.00 0.00 0.00 60 1017.3
20260503033502 42 245 0.0 1.7 0.00 0.00 0.00 60 1017.3
20260503032957 42 200 0.0 1.7 0.00 0.00 0.00 61 1017.4
20260503032451 42 207 0.0 1.7 0.00 0.00 0.00 60 1017.3
20260503031945 41 210 0.0 0.9 0.00 0.00 0.00 61 1017.3
20260503031439 41 202 0.0 0.9 0.00 0.00 0.00 61 1017.4
20260503030933 41 186 0.0 0.9 0.00 0.00 0.00 63 1017.5
20260503030427 40 213 0.0 0.9 0.00 0.00 0.00 64 1017.4
20260503025921 40 211 0.0 0.0 0.00 0.00 0.00 65 1017.5
20260503025647 40 211 0.0 0.0 0.00 0.00 0.00 63 1017.5
20260503024909 40 211 0.0 0.9 0.00 0.00 0.00 63 1017.5
20260503024634 41 211 0.0 0.9 0.00 0.00 0.00 63 1017.5
20260503023857 40 215 0.0 0.9 0.00 0.00 0.00 63 1017.6
20260503023351 40 216 0.0 0.9 0.00 0.00 0.00 63 1017.6
20260503022847 40 226 0.0 0.0 0.00 0.00 0.00 62 1017.7
20260503022842 41 226 0.0 0.0 0.00 0.00 0.00 62 1017.6
20260503022105 41 226 0.0 0.0 0.00 0.00 0.00 62 1017.6
20260503021327 41 226 0.0 0.0 0.00 0.00 0.00 61 1017.7
20260503021051 41 233 0.0 0.9 0.00 0.00 0.00 61 1017.5
20260503020315 41 238 0.0 0.9 0.00 0.00 0.00 61 1017.5
20260503015809 41 253 0.0 0.9 0.00 0.00 0.00 61 1017.5
20260503015305 42 253 0.0 0.0 0.00 0.00 0.00 59 1017.5
20260503014757 42 253 0.0 0.0 0.00 0.00 0.00 59 1017.4
20260503014521 42 253 0.0 0.0 0.00 0.00 0.00 59 1017.5
20260503013745 42 253 0.0 0.0 0.00 0.00 0.00 58 1017.4
20260503013238 42 253 0.0 0.0 0.00 0.00 0.00 57 1017.4
20260503012733 43 253 0.0 0.0 0.00 0.00 0.00 57 1017.4
20260503012728 43 253 0.0 0.0 0.00 0.00 0.00 56 1017.4
20260503011720 43 253 0.0 0.0 0.00 0.00 0.00 55 1017.4
20260503011214 44 253 0.0 0.9 0.00 0.00 0.00 54 1017.3
20260503010709 44 253 0.0 0.9 0.00 0.00 0.00 52 1017.4
20260503010203 45 263 0.0 0.9 0.00 0.00 0.00 51 1017.4
20260503005657 45 263 0.0 0.9 0.00 0.00 0.00 50 1017.3
20260503005150 46 264 0.0 0.0 0.00 0.00 0.00 50 1017.3
20260503004646 46 264 0.0 0.9 0.00 0.00 0.00 50 1017.3
20260503004641 46 264 0.0 0.9 0.00 0.00 0.00 49 1017.3
20260503003633 47 264 0.0 2.6 0.00 0.00 0.00 48 1017.3
20260503003127 47 259 0.9 3.5 0.00 0.00 0.00 47 1017.3
20260503003122 47 268 0.9 5.2 0.00 0.00 0.00 47 1017.3
20260503002115 47 244 0.9 5.2 0.00 0.00 0.00 47 1017.2
20260503001609 47 272 0.9 1.7 0.00 0.00 0.00 47 1017.2
20260503001604 47 264 0.9 2.6 0.00 0.00 0.00 47 1017.2
20260503000557 48 263 1.7 5.2 0.00 0.00 0.00 47 1017.2
20260503000050 48 293 0.9 5.2 0.00 0.00 0.00 47 1017.3
20260502235816 48 266 1.7 4.3 0.00 0.00 0.00 46 1017.3
20260502235039 48 240 1.7 5.2 0.00 0.00 0.00 46 1017.3
20260502234533 48 304 0.9 5.2 0.00 0.00 0.00 45 1017.3
20260502234027 48 6 1.7 5.2 0.00 0.00 0.00 46 1017.3
20260502233751 48 282 1.7 5.2 0.00 0.00 0.00 45 1017.3
20260502233015 48 282 2.6 5.2 0.00 0.00 0.00 45 1017.4
20260502232509 48 257 2.6 5.2 0.00 0.00 0.00 45 1017.4
20260502232003 48 303 2.6 7.0 0.00 0.00 0.00 45 1017.4
20260502231456 48 310 2.6 7.0 0.00 0.00 0.00 45 1017.3
20260502230951 48 295 2.6 7.8 0.00 0.00 0.00 46 1017.4
20260502230445 48 320 2.6 7.8 0.00 0.00 0.00 46 1017.4
20260502225939 48 340 2.6 7.8 0.00 0.00 0.00 46 1017.4
20260502225433 48 307 2.6 7.8 0.00 0.00 0.00 47 1017.4
20260502224926 48 222 2.6 7.0 0.00 0.00 0.00 46 1017.4
20260502224423 48 303 2.6 11.3 0.00 0.00 0.00 46 1017.4
20260502224418 48 205 3.5 11.3 0.00 0.00 0.00 46 1017.5
20260502223640 48 288 2.6 7.0 0.00 0.00 0.00 45 1017.4
20260502222903 48 272 3.5 7.8 0.00 0.00 0.00 46 1017.4
20260502222357 48 293 4.3 8.7 0.00 0.00 0.00 45 1017.4
20260502221850 48 283 3.5 8.7 0.00 0.00 0.00 46 1017.4
20260502221616 48 242 3.5 7.8 0.00 0.00 0.00 47 1017.5
20260502221109 48 300 3.5 7.0 0.00 0.00 0.00 46 1017.4
20260502220333 48 307 2.6 7.8 0.00 0.00 0.00 46 1017.4
20260502215827 48 232 1.7 7.0 0.00 0.00 0.00 46 1017.4
20260502215321 48 264 2.6 9.6 0.00 0.00 0.00 47 1017.4
20260502214815 48 288 2.6 9.6 0.00 0.00 0.00 46 1017.4
20260502214309 48 309 2.6 7.0 0.00 0.00 0.00 47 1017.5
20260502213813 48 307 4.3 8.7 0.00 0.00 0.00 46 1017.3
20260502213809 48 289 3.5 8.7 0.00 0.00 0.00 46 1017.4
20260502212805 48 220 3.5 8.7 0.00 0.00 0.00 47 1017.4
20260502212306 48 298 3.5 10.4 0.00 0.00 0.00 47 1017.4
20260502211811 48 278 2.6 8.7 0.00 0.00 0.00 46 1017.5
20260502211806 48 300 3.5 10.4 0.00 0.00 0.00 47 1017.4
20260502211036 48 293 1.7 8.7 0.00 0.00 0.00 45 1017.5
20260502210306 48 311 2.6 8.7 0.00 0.00 0.00 46 1017.5
20260502205806 48 8 3.5 8.7 0.00 0.00 0.00 46 1017.4
20260502205306 48 288 4.3 11.3 0.00 0.00 0.00 47 1017.5
20260502204813 48 304 3.5 7.0 0.00 0.00 0.00 46 1017.5
20260502204805 48 305 3.5 11.3 0.00 0.00 0.00 46 1017.4
20260502203810 48 294 3.5 7.0 0.00 0.00 0.00 44 1017.6
20260502203308 48 306 2.6 7.8 0.00 0.00 0.00 45 1017.5
20260502202810 48 304 2.6 7.8 0.00 0.00 0.00 44 1017.6
20260502202304 48 312 2.6 5.2 0.00 0.00 0.00 46 1017.6
20260502201757 48 304 3.5 9.6 0.00 0.00 0.00 46 1017.6
20260502201522 47 298 3.5 9.6 0.00 0.00 0.00 45 1017.7
20260502200742 48 6 2.6 6.1 0.00 0.00 0.00 45 1017.8
20260502200507 47 280 2.6 7.0 0.00 0.00 0.00 45 1017.8
20260502195738 48 293 3.5 7.8 0.00 0.00 0.00 44 1018.0
20260502195733 48 294 3.5 7.8 0.00 0.00 0.00 45 1017.9
20260502195006 48 306 3.5 7.0 0.00 0.00 0.00 45 1018.0
20260502194233 48 274 2.6 9.6 0.00 0.00 0.00 46 1018.1